Temp
20 20 21 20 16 13 15 17 18 20 22 21 21 21 17 16 19 19 15 15 16 16 17 17 17 18 18 18 18 18 18 18 18 18 18 17 17 17 17 16 16 16 16 16 16 16 16 16 16
20 21 21 20 14 14 15 17 20 21 22 20 20 18 17 16 15 14 15 15 15 17 17 17 17 17 17 18 18 18 18 18 18 18 18 17 17 17 16 16 15 16 16 15 15 15 15 15 15
20 21 21 14 11 14 15 19 20 22 24 21 18 17 16 14 14 15 15 15 15 16 16 16 17 17 17 17 17 17 18 18 18 17 17 17 17 16 16 16 15 15 15 15 15 15 15 15 15
21 21 19 15 16 16 17 20 20 20 22 21 18 14 15 15 14 15 15 15 15 16 15 15 16 16 16 16 16 17 17 17 17 17 17 17 16 16 16 16 15 15 15 16 16 16 16 16 16
21 20 14 15 16 17 17 20 21 20 22 20 19 14 14 14 14 14 15 15 15 15 14 14 14 14 15 15 15 16 16 16 16 16 16 16 16 16 16 16 15 16 15 16 16 16 15 16 16
20 18 14 15 16 18 18 22 22 22 21 19 16 14 14 14 14 14 14 14 14 15 14 13 13 13 14 15 15 16 17 17 16 16 16 16 16 15 16 15 15 15 15 16 16 16 15 16 16
18 15 16 16 17 18 20 24 23 22 21 19 18 14 14 14 14 14 14 14 14 14 14 13 13 13 13 14 14 15 15 15 15 15 15 15 16 15 15 15 15 15 15 15 15 15 15 15 15
21 15 17 16 18 18 21 24 24 23 20 19 18 15 14 14 14 13 14 14 13 14 13 13 13 13 14 14 14 14 14 15 14 15 15 15 15 15 15 15 15 16 15 15 15 15 15 15 14
20 15 15 17 18 20 23 22 24 23 20 20 19 18 18 17 13 13 13 13 13 13 12 12 13 13 13 14 14 14 14 14 14 14 14 14 14 15 15 15 15 15 15 15 15 15 14 14 14
17 14 17 18 19 21 22 22 23 23 20 19 18 18 18 15 13 13 13 13 13 12 12 12 12 13 13 14 14 14 14 14 14 14 14 14 14 15 15 15 15 15 15 14 14 14 14 13 13
18 17 19 20 21 21 20 21 23 22 20 21 20 18 15 15 13 13 13 12 13 13 12 12 12 13 13 14 14 13 13 13 13 13 13 13 14 14 14 14 14 14 14 14 14 14 14 13 12
17 19 19 20 21 20 20 22 21 21 23 24 23 22 18 15 14 15 13 12 12 12 12 12 12 12 13 13 14 13 13 13 13 13 14 14 14 14 13 13 13 13 13 13 13 13 13 12 12
17 18 19 20 20 20 21 20 20 21 23 23 22 19 19 17 16 15 14 13 14 13 12 12 12 12 12 12 12 12 12 12 12 12 12 13 13 13 13 13 13 13 12 12 12 12 12 12 11
18 18 18 20 20 19 19 19 21 22 22 22 21 21 19 18 17 16 15 14 13 12 12 12 12 12 12 12 12 12 12 12 12 12 11 12 12 11 12 12 12 12 12 12 12 12 12 11 10
18 16 16 18 20 19 20 18 18 22 21 21 20 19 18 18 16 18 17 16 16 15 13 12 12 12 12 12 12 11 11 11 11 11 11 11 11 11 11 11 10 11 11 12 12 11 11 10 9
16 16 15 18 18 20 19 17 18 19 18 18 18 17 16 16 18 17 16 16 15 15 13 12 13 12 12 12 12 11 11 10 10 10 10 10 10 10 10 11 10 10 10 11 11 11 10 10 9
14 14 16 17 18 19 20 18 18 19 18 18 17 16 17 18 16 16 17 17 16 15 14 13 12 12 11 11 11 11 10 10 10 10 10 10 10 10 10 11 11 11 10 10 10 10 10 9 8
15 15 14 14 16 16 17 18 15 19 19 19 18 17 16 16 17 15 16 16 15 14 13 13 12 11 11 10 10 10 10 9 9 10 10 10 9 9 10 10 10 10 9 9 10 10 9 8 8
15 14 14 14 15 17 17 16 15 18 18 18 19 19 20 19 20 17 16 16 15 13 13 12 11 11 10 10 10 9 10 9 9 9 8 9 9 9 9 9 9 9 8 9 9 9 8 8 7
14 14 14 14 16 16 15 13 14 14 16 20 20 20 20 19 19 17 16 15 15 14 12 12 11 11 11 10 10 10 10 9 9 8 8 8 8 8 8 8 9 8 8 8 9 9 8 8 6
14 14 15 15 16 14 14 16 16 16 16 18 18 19 19 19 17 16 15 15 15 13 12 12 11 10 10 10 9 9 8 8 8 7 7 8 8 8 8 8 8 8 8 8 8 8 8 7 7
14 15 15 15 15 13 15 14 15 15 15 14 17 17 16 17 16 15 15 13 12 11 11 11 10 10 9 9 8 8 8 8 8 7 8 8 8 8 8 8 8 8 8 8 7 7 7 7 7
15 16 16 16 14 12 13 12 14 14 14 14 13 14 14 16 16 12 10 9 8 8 9 10 9 9 8 8 8 8 7 8 7 7 7 7 7 7 8 7 7 7 7 7 7 6 6 6 6
16 16 14 10 11 11 12 12 12 12 12 11 12 12 11 12 12 10 9 8 7 7 9 9 9 8 7 7 7 7 7 7 7 7 7 7 7 7 7 6 6 6 6 6 6 5 5 5 5
15 13 10 10 10 11 13 11 12 12 11 11 10 10 9 10 10 9 8 7 7 9 8 8 7 7 6 7 7 7 7 6 7 7 7 7 7 7 6 6 6 6 5 5 4 4 4 4 3
14 12 10 11 10 10 12 11 12 11 11 10 10 10 9 10 10 9 8 8 9 8 8 7 7 7 7 6 7 7 6 6 6 6 6 6 6 6 5 5 5 4 4 4 4 4 3 3 2
14 12 13 11 10 9 10 11 12 11 10 10 10 11 10 9 9 9 9 9 8 8 8 9 9 8 8 8 7 7 6 6 6 6 5 5 5 5 4 4 4 3 4 3 2 3 2 2 2
14 13 11 10 10 9 10 11 10 11 11 10 10 10 12 12 11 11 11 11 12 10 10 9 9 10 8 7 7 7 6 6 6 5 5 4 4 3 4 4 3 3 2 2 2 2 1 1 1
11 11 11 11 9 9 10 9 10 11 10 10 9 11 12 11 12 12 12 12 11 10 10 10 9 9 8 8 8 6 6 6 5 5 5 4 4 4 4 3 2 2 2 2 1 0 1 1 1
11 11 10 8 10 7 7 6 10 10 11 11 11 12 11 10 11 11 13 12 11 10 10 9 9 9 9 8 8 8 6 6 5 5 4 3 4 4 3 2 1 2 2 1 0 -0 0 -0 -0
Height
1498 1498 1498 1498 1511 1516 1519 1505 1488 1485 1478 1472 1470 1469 1473 1474 1477 1490 1480 1482 1486 1489 1492 1497 1501 1503 1505 1506 1507 1508 1509 1511 1513 1515 1516 1517 1519 1520 1520 1521 1521 1521 1521 1522 1521 1521 1522 1522 1522
1497 1496 1497 1497 1518 1529 1519 1494 1488 1481 1480 1478 1474 1475 1475 1480 1480 1481 1482 1485 1489 1492 1495 1497 1500 1503 1505 1506 1508 1508 1509 1511 1513 1514 1515 1517 1518 1518 1519 1520 1521 1521 1521 1521 1522 1521 1521 1521 1521
1495 1495 1496 1503 1524 1526 1515 1487 1479 1476 1478 1477 1480 1478 1479 1480 1482 1483 1484 1486 1489 1493 1496 1499 1500 1503 1504 1506 1508 1508 1510 1511 1512 1514 1514 1516 1518 1518 1519 1520 1522 1521 1521 1521 1521 1520 1520 1520 1520
1494 1495 1498 1509 1512 1504 1497 1480 1474 1473 1474 1474 1478 1482 1482 1481 1481 1483 1486 1487 1491 1493 1496 1499 1502 1504 1505 1506 1508 1509 1509 1510 1512 1513 1514 1516 1518 1518 1518 1519 1520 1521 1520 1520 1520 1520 1520 1519 1519
1495 1494 1507 1512 1506 1493 1484 1475 1470 1469 1470 1474 1478 1485 1484 1484 1483 1485 1487 1489 1490 1493 1496 1499 1502 1504 1504 1506 1508 1509 1509 1510 1511 1513 1514 1515 1516 1517 1517 1519 1520 1521 1520 1520 1519 1519 1519 1518 1519
1494 1496 1512 1516 1504 1489 1479 1473 1469 1466 1468 1474 1477 1482 1485 1484 1486 1487 1488 1490 1492 1494 1496 1498 1501 1502 1504 1505 1506 1507 1508 1510 1511 1511 1513 1514 1515 1516 1517 1518 1518 1520 1520 1519 1519 1519 1518 1519 1519
1493 1499 1506 1503 1500 1490 1477 1471 1468 1467 1470 1474 1476 1479 1483 1483 1484 1487 1490 1492 1493 1495 1496 1498 1498 1500 1503 1504 1505 1507 1508 1509 1511 1511 1512 1513 1514 1516 1516 1517 1518 1518 1519 1519 1519 1519 1518 1518 1518
1490 1495 1501 1500 1498 1492 1474 1470 1471 1468 1471 1474 1474 1475 1477 1476 1480 1483 1488 1491 1493 1494 1496 1497 1497 1500 1501 1503 1504 1506 1508 1509 1510 1511 1512 1513 1513 1515 1516 1516 1517 1517 1518 1519 1519 1518 1518 1518 1518
1489 1502 1510 1498 1495 1483 1473 1472 1470 1470 1471 1472 1471 1471 1472 1472 1477 1481 1483 1485 1489 1492 1493 1495 1496 1498 1501 1502 1503 1505 1506 1507 1508 1509 1510 1512 1512 1513 1514 1515 1515 1516 1518 1518 1518 1518 1517 1517 1517
1487 1499 1493 1483 1480 1478 1475 1474 1471 1470 1471 1471 1471 1470 1470 1472 1475 1476 1477 1479 1482 1484 1487 1490 1495 1497 1498 1500 1502 1502 1503 1505 1506 1508 1510 1510 1511 1512 1513 1514 1515 1516 1516 1517 1517 1517 1516 1516 1517
1487 1492 1483 1479 1477 1475 1475 1472 1470 1469 1471 1465 1466 1466 1469 1472 1475 1475 1475 1477 1477 1484 1485 1486 1489 1493 1496 1498 1499 1501 1502 1502 1503 1505 1508 1510 1510 1511 1512 1513 1515 1515 1515 1515 1516 1516 1516 1516 1516
1491 1481 1481 1479 1478 1478 1476 1472 1469 1467 1465 1463 1463 1464 1466 1469 1470 1469 1470 1474 1478 1481 1484 1488 1490 1491 1493 1494 1497 1499 1500 1501 1502 1503 1505 1507 1509 1510 1511 1513 1514 1514 1514 1515 1515 1515 1515 1515 1514
1486 1482 1480 1477 1475 1473 1472 1469 1468 1464 1463 1461 1460 1461 1462 1463 1465 1467 1468 1471 1474 1478 1483 1485 1486 1487 1491 1493 1494 1496 1499 1500 1502 1503 1504 1505 1506 1508 1510 1511 1512 1513 1514 1515 1515 1514 1514 1515 1514
1484 1481 1476 1471 1467 1467 1467 1463 1463 1459 1460 1459 1458 1456 1458 1459 1461 1464 1465 1466 1471 1477 1480 1482 1484 1486 1487 1490 1493 1496 1497 1499 1501 1502 1503 1505 1506 1507 1509 1510 1511 1512 1512 1513 1514 1514 1514 1514 1515
1483 1483 1474 1468 1467 1466 1463 1462 1460 1456 1456 1456 1456 1455 1455 1457 1461 1459 1462 1464 1466 1467 1472 1476 1480 1482 1484 1487 1489 1492 1496 1498 1499 1500 1502 1503 1504 1505 1506 1508 1510 1511 1511 1511 1512 1513 1513 1514 1514
1486 1484 1489 1470 1468 1466 1466 1473 1456 1457 1458 1458 1455 1454 1454 1455 1454 1458 1462 1465 1466 1467 1468 1471 1475 1478 1481 1484 1486 1489 1492 1495 1497 1498 1500 1501 1502 1503 1505 1506 1509 1510 1510 1510 1511 1511 1512 1512 1512
1491 1497 1489 1480 1468 1467 1466 1469 1458 1458 1458 1457 1455 1453 1450 1451 1454 1454 1456 1459 1460 1462 1465 1467 1472 1476 1479 1482 1484 1486 1488 1490 1493 1494 1497 1498 1500 1502 1504 1505 1507 1508 1509 1510 1510 1510 1511 1511 1511
1495 1493 1490 1492 1473 1468 1468 1465 1458 1454 1453 1453 1450 1449 1450 1448 1446 1452 1454 1454 1457 1461 1463 1463 1467 1472 1476 1479 1482 1484 1485 1487 1489 1491 1493 1495 1496 1499 1501 1503 1505 1506 1506 1507 1508 1509 1510 1511 1511
1487 1489 1491 1483 1472 1471 1469 1466 1460 1452 1450 1446 1444 1444 1444 1442 1443 1445 1448 1451 1453 1455 1456 1460 1462 1466 1471 1474 1478 1481 1481 1483 1486 1489 1491 1493 1494 1496 1498 1500 1502 1503 1506 1506 1506 1507 1509 1508 1509
1485 1488 1485 1477 1470 1471 1469 1467 1460 1453 1447 1443 1441 1438 1436 1435 1435 1437 1438 1439 1440 1443 1448 1453 1458 1461 1465 1470 1474 1477 1480 1482 1484 1484 1487 1490 1492 1494 1497 1499 1500 1502 1503 1505 1505 1505 1509 1508 1507
1482 1484 1480 1478 1470 1468 1467 1455 1455 1449 1445 1442 1441 1437 1434 1432 1428 1428 1428 1430 1435 1440 1444 1449 1454 1460 1464 1468 1473 1476 1477 1479 1479 1482 1484 1487 1490 1492 1494 1497 1499 1500 1502 1503 1504 1504 1506 1506 1505
1481 1470 1471 1473 1477 1487 1472 1470 1459 1451 1443 1437 1433 1434 1432 1428 1425 1422 1422 1426 1431 1437 1441 1448 1455 1461 1464 1468 1469 1474 1476 1476 1480 1481 1483 1485 1487 1489 1491 1494 1497 1499 1500 1501 1502 1503 1504 1505 1503
1475 1467 1468 1469 1476 1481 1479 1487 1455 1449 1450 1445 1440 1436 1432 1427 1423 1425 1430 1434 1436 1436 1440 1448 1456 1458 1460 1465 1468 1470 1478 1479 1479 1481 1481 1483 1485 1488 1489 1491 1493 1496 1497 1498 1499 1500 1502 1502 1501
1463 1467 1471 1479 1483 1489 1474 1478 1463 1456 1453 1445 1440 1436 1432 1426 1425 1429 1431 1435 1438 1440 1447 1450 1454 1458 1459 1457 1465 1470 1473 1476 1478 1477 1481 1482 1484 1485 1488 1488 1491 1492 1495 1496 1497 1498 1498 1498 1498
1465 1475 1492 1491 1489 1482 1465 1475 1457 1448 1447 1447 1442 1438 1435 1431 1429 1432 1433 1437 1442 1449 1454 1456 1458 1452 1460 1457 1461 1466 1475 1476 1478 1479 1477 1479 1479 1483 1487 1487 1489 1492 1493 1493 1494 1495 1496 1495 1495
1469 1475 1492 1487 1489 1481 1465 1470 1457 1452 1450 1447 1443 1441 1440 1437 1436 1436 1438 1440 1443 1448 1454 1451 1454 1460 1459 1461 1460 1463 1472 1473 1476 1479 1476 1480 1477 1481 1485 1486 1487 1489 1491 1492 1493 1494 1495 1494 1495
1470 1477 1471 1478 1479 1484 1470 1459 1453 1454 1452 1448 1445 1443 1441 1441 1443 1442 1443 1445 1447 1449 1449 1452 1450 1453 1454 1460 1460 1462 1467 1467 1470 1474 1478 1478 1478 1480 1482 1483 1486 1489 1489 1490 1492 1494 1495 1494 1495
1467 1469 1481 1483 1484 1484 1469 1463 1460 1454 1455 1453 1450 1446 1442 1443 1442 1443 1445 1444 1443 1442 1443 1445 1442 1442 1452 1460 1459 1462 1463 1465 1464 1471 1473 1477 1475 1479 1479 1481 1485 1487 1488 1489 1491 1493 1494 1495 1496
1471 1472 1474 1475 1478 1474 1470 1463 1453 1455 1454 1454 1453 1452 1450 1446 1443 1442 1439 1437 1436 1440 1441 1442 1443 1443 1446 1444 1450 1459 1462 1461 1462 1465 1469 1476 1475 1477 1477 1482 1484 1484 1486 1489 1491 1492 1493 1495 1496
1465 1466 1469 1481 1470 1475 1473 1468 1449 1453 1453 1452 1450 1449 1448 1451 1445 1441 1436 1435 1436 1434 1437 1436 1437 1441 1442 1445 1443 1442 1449 1452 1456 1461 1467 1472 1473 1472 1474 1479 1482 1482 1484 1487 1490 1492 1493 1495 1496
Wind_Speed
9 8 7 2 4 5 4 6 4 7 4 5 3 6 8 6 4 3 9 19 23 30 28 24 22 21 20 20 20 19 18 16 15 13 11 10 8 7 6 5 4 3 3 1 1 1 1 1 2
6 5 1 3 4 3 5 4 4 3 4 11 10 6 7 2 2 5 12 18 21 25 26 25 23 22 21 20 19 18 16 15 13 12 10 9 8 7 6 4 4 2 1 1 1 1 1 1 1
5 2 2 4 4 4 4 5 9 8 6 3 4 6 3 5 8 15 14 21 19 23 24 23 23 22 21 19 18 16 15 14 13 12 10 9 7 5 3 2 2 2 2 1 2 2 2 2 2
1 1 4 4 4 7 8 14 18 6 4 13 11 5 5 4 19 13 18 18 22 24 23 22 22 21 20 19 17 16 15 14 12 12 10 8 6 5 5 4 3 2 1 1 2 2 2 2 3
3 1 3 2 5 6 7 19 24 6 4 7 3 3 4 11 10 16 21 20 22 23 23 22 21 21 21 20 18 17 15 15 14 12 10 9 8 6 6 4 3 3 3 3 3 3 3 4 4
1 2 3 2 5 7 8 9 5 2 6 9 8 5 2 8 11 21 21 20 18 20 23 23 20 18 19 20 18 17 16 15 14 11 10 9 8 7 6 5 4 4 5 4 3 3 3 3 3
6 4 4 4 4 7 6 17 2 5 6 3 12 5 7 13 16 23 21 20 18 19 22 23 21 20 21 19 18 16 14 12 12 10 10 9 9 8 7 6 6 6 5 4 3 2 2 2 3
4 4 0 3 2 7 6 15 4 4 3 15 4 6 7 24 23 24 23 19 19 18 19 21 24 23 21 19 17 16 14 13 12 11 11 10 10 10 9 9 8 7 6 4 3 2 2 2 2
4 3 1 5 4 6 15 4 7 2 11 4 4 6 5 24 28 27 26 25 24 23 20 21 22 21 19 19 18 17 16 16 15 14 13 12 11 11 11 10 9 8 7 5 5 4 4 3 3
4 4 7 5 4 5 9 4 5 2 3 3 4 6 11 28 33 33 32 31 31 29 25 22 19 19 19 19 18 19 19 18 17 16 15 15 13 12 12 11 9 8 7 6 6 5 5 3 2
0 4 3 5 6 6 6 5 3 2 3 12 14 15 19 32 33 34 32 30 30 29 26 25 23 20 20 19 19 20 21 21 20 18 17 15 14 14 13 11 8 9 8 7 6 6 6 4 1
5 8 5 8 6 10 6 9 6 7 10 11 15 17 23 34 35 32 31 30 29 30 25 23 22 20 20 18 17 20 21 21 19 18 17 15 14 13 12 10 9 10 9 8 7 7 6 5 3
4 4 18 19 24 16 12 12 9 13 14 12 13 21 27 33 33 31 27 27 27 29 26 26 24 22 20 18 19 20 19 18 17 16 15 14 14 13 11 11 12 11 9 8 7 7 6 5 3
7 14 21 19 28 16 7 10 5 8 11 15 18 24 29 33 33 31 30 29 28 28 29 27 25 23 21 19 19 19 18 15 13 14 14 14 13 12 11 13 13 12 10 9 9 8 7 6 4
11 7 9 8 8 5 4 8 7 13 14 19 24 28 31 33 32 33 30 29 29 28 27 30 29 26 24 23 21 19 16 12 12 13 15 15 15 14 14 13 11 11 11 10 10 9 8 7 6
5 3 5 5 6 4 2 8 8 5 11 19 24 29 32 34 33 33 32 29 29 28 31 30 31 30 27 25 22 20 18 14 14 14 15 15 15 15 14 12 10 10 10 10 10 9 8 8 8
4 3 2 9 1 2 1 7 4 7 6 18 25 31 33 34 34 35 34 31 32 33 33 33 32 30 28 27 24 22 20 18 16 16 15 15 15 14 13 12 11 11 11 9 9 8 8 8 10
3 4 3 6 6 7 5 5 9 15 12 11 14 24 31 34 37 35 37 36 36 36 35 36 34 32 30 28 27 25 22 20 18 16 16 15 15 14 12 11 11 12 10 10 9 9 8 8 11
6 4 7 6 7 3 6 5 11 18 15 18 21 21 29 38 40 37 38 41 41 41 42 41 38 36 33 32 32 29 27 22 18 16 15 14 15 14 13 12 11 9 9 9 8 8 9 10 14
9 9 12 7 5 4 7 9 12 9 10 20 18 28 31 28 27 37 43 47 49 49 49 45 42 37 35 33 32 30 26 21 17 17 16 15 14 13 11 9 8 9 9 9 9 9 10 11 17
6 7 5 7 3 5 6 10 4 7 12 20 20 24 31 32 26 32 44 50 51 53 53 50 44 37 33 31 30 27 25 21 21 18 15 14 13 12 11 10 9 10 10 9 9 9 12 12 18
4 5 6 5 2 4 3 14 6 7 13 8 22 21 25 26 26 31 40 48 51 51 54 50 41 34 30 29 29 27 27 24 19 14 13 13 13 12 11 10 10 10 10 10 9 11 12 13 15
7 3 5 2 3 3 2 4 1 3 7 8 10 18 22 24 17 23 27 32 35 43 50 45 35 31 28 27 26 24 23 17 16 15 14 14 13 12 12 12 10 11 10 10 11 10 11 12 14
5 3 2 3 2 7 7 9 4 1 4 6 9 14 13 9 3 14 21 25 29 34 38 35 30 27 24 25 25 24 21 20 18 16 16 14 14 14 13 12 11 10 11 11 10 8 9 8 10
3 4 3 4 1 7 2 2 8 1 4 4 6 7 8 6 8 13 17 21 24 26 29 26 18 17 25 23 26 20 20 20 15 16 16 16 14 13 13 12 11 11 10 9 8 6 6 5 6
3 6 5 6 3 4 3 5 4 4 3 5 10 8 6 3 3 10 15 20 23 23 17 17 23 25 24 21 19 20 23 21 19 17 15 15 10 11 14 12 11 10 9 9 8 6 6 4 5
2 3 2 2 1 3 3 4 3 3 5 8 11 12 10 6 3 7 10 12 14 17 16 12 14 16 15 21 20 22 24 22 20 18 18 16 13 14 14 10 10 11 10 8 7 6 7 7 7
3 2 3 2 3 6 4 5 4 2 2 4 4 7 11 7 8 6 8 13 18 22 23 19 10 9 17 23 20 23 24 23 19 21 21 20 16 16 12 12 13 13 10 9 10 9 9 9 10
3 1 0 2 4 5 11 8 3 2 5 4 1 2 11 11 10 15 20 23 23 23 23 23 19 17 21 18 20 28 29 25 21 22 21 22 18 16 14 14 16 14 12 12 12 11 11 10 10
6 6 6 4 9 3 2 7 4 4 1 6 9 15 13 25 36 23 20 20 27 28 28 28 26 27 27 26 24 24 29 25 24 24 25 23 22 18 16 16 16 15 15 15 14 13 12 10 11
Wind_Direction
321 310 314 292 52 60 269 266 273 286 285 2 80 97 133 108 154 207 162 163 175 174 176 177 178 174 170 165 163 162 161 160 159 159 158 157 157 161 164 166 169 168 159 133 74 43 39 32 34
313 303 277 122 92 59 270 246 232 270 328 89 47 59 38 58 96 144 154 165 167 179 178 179 180 178 173 170 169 167 166 165 166 168 167 169 173 173 171 171 168 161 170 203 259 269 281 295 302
322 313 196 94 98 174 248 251 275 290 278 234 101 82 83 127 151 154 176 177 182 185 179 183 184 183 179 176 176 173 172 173 176 177 180 181 182 172 178 188 231 199 203 231 257 267 273 276 272
288 178 71 88 240 244 225 264 269 309 257 222 144 70 100 181 161 169 165 176 178 181 181 184 185 186 183 181 180 179 180 183 187 187 184 190 193 183 184 197 212 226 225 248 270 286 296 286 275
321 77 62 48 255 257 251 262 275 261 188 139 144 128 74 145 169 170 167 176 181 179 181 183 185 183 184 180 181 183 185 186 187 191 189 188 194 196 192 200 221 251 259 261 267 275 275 272 287
89 77 53 232 260 279 276 291 262 104 128 143 107 98 155 198 211 173 175 178 185 188 184 186 184 183 190 189 186 188 191 192 196 195 191 195 198 200 194 206 223 245 251 254 260 267 275 300 320
144 104 223 216 265 304 265 338 29 134 122 87 133 114 173 193 193 180 178 186 191 195 198 198 195 193 194 195 194 197 201 204 210 209 205 204 202 203 206 216 228 235 242 243 249 255 282 323 329
177 97 54 285 224 272 284 343 50 47 61 143 150 180 188 196 183 179 182 191 197 200 205 213 200 200 199 198 201 208 213 215 217 218 216 213 211 213 217 218 221 229 237 243 252 265 279 302 308
180 74 223 248 196 252 312 349 15 69 143 197 208 217 252 189 176 179 183 189 196 199 203 201 200 198 201 203 207 211 214 215 216 216 212 214 215 216 220 220 217 226 238 242 261 278 290 298 305
128 141 225 222 211 282 296 287 305 118 166 242 261 235 225 183 180 184 189 193 196 194 197 198 199 199 203 208 212 215 216 215 213 215 215 216 215 218 222 225 224 232 241 250 260 274 283 285 291
281 197 211 290 264 353 275 283 242 208 227 228 216 202 183 182 188 191 193 199 200 199 198 199 199 202 209 213 217 217 217 214 212 213 218 215 217 222 226 229 229 236 240 245 254 265 274 278 284
330 246 254 306 313 325 294 298 280 230 249 264 242 224 191 189 197 200 200 201 203 198 198 201 206 207 205 206 215 215 213 210 213 219 221 219 222 225 225 228 234 238 243 246 254 259 262 272 276
208 324 316 298 298 284 275 248 260 270 269 237 230 198 199 198 202 203 205 205 203 201 198 203 202 202 197 197 206 206 210 214 215 219 221 223 227 230 236 238 242 243 245 249 252 255 259 262 259
313 306 299 307 306 284 218 269 189 254 227 221 210 208 206 206 206 205 206 207 202 202 203 203 201 196 194 199 208 211 210 212 221 227 228 229 234 237 237 238 239 243 245 246 247 247 245 243 232
296 307 327 328 312 309 230 298 229 264 225 209 213 214 210 210 211 215 214 210 206 208 203 203 202 199 203 208 211 212 209 214 227 231 232 230 231 233 233 236 241 242 242 240 237 235 230 224 227
336 18 338 304 343 315 154 279 347 41 199 222 223 221 220 219 219 216 216 215 212 210 208 203 205 205 205 212 215 212 213 222 233 239 237 235 234 234 235 240 248 245 240 237 232 226 221 216 209
356 257 271 318 177 357 106 287 258 14 191 244 246 238 229 227 225 221 218 217 214 209 208 204 204 205 207 208 210 212 217 224 234 238 236 232 232 233 237 241 245 247 245 241 233 226 217 204 195
240 277 294 255 284 8 318 264 301 317 320 288 253 245 239 236 236 229 222 220 217 211 208 205 201 205 208 208 208 211 219 226 227 226 225 224 227 232 235 238 238 239 239 235 230 225 207 192 191
261 263 261 261 267 297 260 268 285 295 299 282 276 262 248 248 251 238 229 223 220 213 208 205 201 203 208 208 210 213 217 216 217 220 220 219 223 226 231 230 231 237 243 236 226 218 200 179 172
244 255 270 270 254 203 253 250 248 257 253 266 287 298 294 284 258 241 231 223 220 214 208 204 205 206 209 216 217 218 214 210 214 218 218 216 220 222 226 233 236 238 241 238 230 217 210 182 178
242 222 233 238 308 300 312 280 222 263 263 274 291 300 297 292 276 237 225 223 218 214 207 203 202 205 210 214 213 209 205 207 208 208 209 210 215 217 221 229 235 238 240 241 237 226 222 207 191
256 222 234 252 322 277 32 293 194 259 283 312 330 337 327 315 289 251 229 214 212 209 205 201 200 204 210 213 211 214 213 209 212 210 206 206 210 216 220 224 230 239 243 244 246 241 235 230 216
241 255 260 279 274 18 293 287 50 305 309 318 310 338 337 332 308 233 203 200 198 197 197 194 197 204 203 216 220 221 222 213 207 200 207 208 207 211 217 218 223 235 246 249 246 245 244 237 230
246 226 22 62 119 270 220 198 296 311 268 288 319 343 4 20 177 188 190 195 194 194 192 193 202 204 210 213 224 224 211 208 207 210 206 201 209 211 215 220 225 232 243 252 254 251 248 241 232
132 98 301 304 217 238 173 183 246 347 5 323 313 19 38 67 138 166 183 188 189 191 196 200 205 217 218 218 214 215 227 226 237 229 210 211 215 219 222 223 228 233 238 249 256 254 252 240 217
248 170 181 251 225 250 321 260 265 90 352 34 64 68 73 91 173 192 194 194 190 186 186 226 221 214 215 220 225 226 226 228 242 241 228 230 224 222 228 224 226 230 236 244 248 241 236 215 199
322 236 187 270 262 311 210 290 345 65 10 32 61 76 87 93 137 172 176 179 193 215 217 239 240 241 245 232 229 226 223 228 234 242 235 238 229 228 222 228 237 237 228 227 233 222 217 187 178
175 221 344 360 269 245 266 266 224 269 19 354 34 87 88 98 136 156 224 239 246 235 245 240 234 235 236 236 240 237 236 233 238 234 233 237 228 234 226 234 235 230 222 218 223 215 204 194 179
339 159 319 230 191 241 270 268 182 179 223 215 202 330 333 276 272 261 244 236 220 219 224 226 224 224 224 219 236 241 236 232 236 236 237 238 233 239 236 238 232 223 224 218 215 209 210 203 194
203 213 186 204 263 238 169 261 314 250 278 273 268 267 298 291 285 274 255 236 227 222 223 225 225 227 227 233 233 226 230 235 238 242 237 235 233 232 233 235 229 226 221 218 215 214 209 206 205